Retour au catalogue

DELTA 1 DEB

LostPO
NORAD 21462·DEBRIS·🇺🇸 United States

Lancé Jun 12, 1975 depuis Vandenberg Space Force Base

Loading…

Prochains Passages (prochaines 24 heures)

TLE

PériméSource: Space-Track

Époque: Nov 4, 2015, 22:15 UTC

1 21462U 75052EW  15308.92717125 -.00000011  00000-0  00000-0 0  9998
2 21462  90.7142 329.3884 1410812 266.6328  77.3574 12.47366472117719

Suivez DELTA 1 DEB en temps réel avec AllMySat

Download on the App Store